Regional Weather Roundup
Issued by NWS

Home | Current Version | Previous Version | Text Only | Print | Product List | Glossary On
Versions: 1 2 3 4 5 6 7 8 9 10 11 12 13 14 15 16 17 18 19 20 21 22 23 24 25 26 27 28 29 30 31 32 33 34 35 36 37 38 39 40 41 42 43 44 45 46 47 48 49 50
000
ASUS44 KMEG 231810
RWRTN
TENNESSEE HOURLY STATE WEATHER ROUNDUP
NATIONAL WEATHER SERVICE MEMPHIS TN
100 PM CDT SAT SEP 23 2017

TNZ002-004-019-021-049-052-054-088>092-231900-
WEST TENNESSEE

CITY           SKY/WX    TMP DP  RH WIND       PRES   REMARKS
MEMPHIS INTL   MOSUNNY   89  67  47 VRB6      30.02F HX  92
NWS MEMPHIS      N/A     90 N/A N/A MISG        N/A
JACKSON        MOSUNNY   91  67  44 NE3       30.04F HX  94
DYERSBURG      PTSUNNY   90  69  50 VRB3      30.04F HX  94
SOMERVILLE     MOSUNNY   90  68  48 N6        30.01F HX  93
COVINGTON      SUNNY     90  68  48 E6        30.02F HX  93
BOLIVAR        MOSUNNY   88  70  55 VRB5      30.02F HX  92
PARIS          SUNNY     88  68  51 VRB5      30.04F HX  91
HUNTINGDON     MOSUNNY   86  68  54 VRB6      30.03F
LEXINGTON      SUNNY     88  66  48 N6        30.03F HX  90
SELMER         PTSUNNY   86  70  58 NE5       30.03F HX  90
SAVANNAH       SUNNY     88  70  55 VRB3      30.02F HX  92
$$

TNZ008-025-027-028-033-062-065-066-231900-
NORTH MIDDLE TENNESSEE

CITY           SKY/WX    TMP DP  RH WIND       PRES   REMARKS
NASHVILLE      PTSUNNY   89  68  49 VRB5      30.06F HX  93
PORTLAND       PTSUNNY   84  72  65 NE6       30.06F
CLARKSVILLE    SUNNY     89  67  47 VRB3      30.05F HX  92
SMYRNA         MOSUNNY   87  66  50 CALM      30.07F
COOKEVILLE     MOSUNNY   86  68  54 VRB3      30.07F
GALLATIN       SUNNY     88  68  51 CALM      30.08F HX  91
CROSSVILLE     PTSUNNY   82  64  54 N5        30.12F
$$

TNZ061-075-076-078-094-096-097-231900-
SOUTH MIDDLE TENNESSEE

CITY           SKY/WX    TMP DP  RH WIND       PRES   REMARKS
FAYETTEVILLE   SUNNY     86  70  58 VRB3      30.06F HX  90
TULLAHOMA      MOSUNNY   82  64  54 NE5       30.08F
WINCHESTER     MOSUNNY   84  68  58 N5        30.06F
MCMINNVILLE    MOSUNNY   88  70  55 E6        30.07F HX  92
COLUMBIA       PTSUNNY   88 N/A N/A N5        30.03F
SHELBYVILLE    MOSUNNY   86  68  54 N8        30.06F
$$

TNZ017-018-042-046-047-231900-
NORTHEAST TENNESSEE

CITY           SKY/WX    TMP DP  RH WIND       PRES   REMARKS
TRI CITIES     MOSUNNY   87  61  41 VRB3      30.10F
ELIZABETHTON   PTSUNNY   84  59  42 VRB3G13   30.10F
$$

TNZ012-013-036-069-073-074-231900-
CENTRAL EAST TENNESSEE

CITY           SKY/WX    TMP DP  RH WIND       PRES   REMARKS
KNOXVILLE      MOSUNNY   84  65  52 NW5       30.07F
OAK RIDGE      SUNNY     86  65  49 CALM      30.08F
DOWNTOWN KNOXV SUNNY     86  68  54 CALM      30.06F
GATLINBURG     SUNNY     88  63  42 W3        30.07F
MORRISTOWN     MOSUNNY   86  64  48 CALM      30.07F
JACKSBORO      SUNNY     86  66  51 CALM      30.11F
$$

TNZ083-085-099-231900-
SOUTHEAST TENNESSEE

CITY           SKY/WX    TMP DP  RH WIND       PRES   REMARKS
CHATTANOOGA    MOSUNNY   87  64  46 CALM      30.06F
DAYTON         CLEAR     86  68  54 SE3       30.05F
$$

SKY/WX REPORTED AS FAIR MEANS FEW OR NO CLOUDS BELOW
12 THOUSAND FEET.





USA.gov is the U.S. government's official web portal to all federal, state and local government web resources and services.